{"data":{"norad_id":69988,"epoch":"2026-09-20T00:00:02.998944Z","epoch_age_seconds":61001,"freshness":"FRESH","line1":"1 69988U 26159P   26263.00003471  .00096178  00000+0  17510-2 0  9993","line2":"2 69988  97.2846 104.8251 0001504  96.1742 153.2675 15.49148527  6021","mean_motion":15.49148527,"eccentricity":0.0001504,"inclination_deg":97.2846,"raan_deg":104.8251,"arg_perigee_deg":96.1742,"mean_anomaly_deg":153.2675,"bstar":0.001751,"rev_number":602,"period_min":92.95428907573,"perigee_km":418.19333546089,"apogee_km":420.23797914021,"semimajor_km":6797.3526573006,"source":"CELESTRAK","updated_at":"2026-09-20T09:00:44.330485Z"}}